Regional Weather Roundup
Issued by NWS Upton, NY

Current Version | Previous Version | Graphics & Text | Print | Product List | Glossary Off
Versions: 1 2 3 4 5 6 7 8 9 10 11 12 13 14 15 16 17 18 19 20 21 22 23 24 25 26 27

000
ASUS41 KOKX 190708
RWROKX

Regional Weather Roundup
National Weather Service New York NY
200 AM EST FRI JAN 19 2018

Note: "FAIR" indicates few or no clouds below 12,000 feet with no
significant weather and/or obstructions to visibility.

NYZ071-072-176-178-NJZ106-104-190800-
New York City Metro Area

CITY           SKY/WX    TMP DP  RH WIND       PRES   REMARKS
Central Park   FAIR      25  12  58 W5        30.06S WCI  19
Bronx Bot Gard   N/A     27  12  54 W12       30.06S WCI  16
Bronx Lehman C   N/A     25  14  63 W7          N/A  WCI  17
LaGuardia Arpt FAIR      26  12  55 W8        30.04S WCI  18
Queens College   N/A     27  14  59 NW6         N/A  WCI  20
Kennedy Intl   FAIR      25  13  60 W8        30.06S WCI  16
Breezy Point     N/A    N/A N/A N/A W6          N/A
Brooklyn Coll    N/A     28  14  54 W6          N/A  WCI  22
Staten Island    N/A     25  14  63 SW2         N/A
Newark/Liberty FAIR      23  12  62 W5        30.05F WCI  17
Teterboro      FAIR      23  12  62 CALM      30.05S
$$

NYZ177-179-078>081-190800-
Long Island New York

CITY           SKY/WX    TMP DP  RH WIND       PRES   REMARKS
Jones Beach      N/A    N/A N/A N/A W9          N/A
Wantagh          N/A     27  14  59 W7          N/A  WCI  19
Matinecock Pt    N/A    N/A N/A N/A W18         N/A
Farmingdale    FAIR      24  13  62 W10       30.04R WCI  14
MacArthur/ISP  FAIR      22  14  71 W6        30.03R WCI  14
Shirley          N/A    N/A N/A N/A MISG      30.03S
Mt Sinai Harb    N/A    N/A N/A N/A W5          N/A
Westhampton    FAIR      18  10  71 CALM      30.03S
East Hampton   FAIR      25  16  70 NW5       30.01R WCI  19
Southold         N/A     28  18  64 NW12        N/A  WCI  18
Montauk          N/A     28  18  66 NW12G21   30.00S WCI  18
$$

NYZ052-065-067-190800-
Hudson Valley

CITY           SKY/WX    TMP DP  RH WIND       PRES   REMARKS
White Plains   FAIR      21  12  68 W7        30.00R WCI  12
Larchmont Harb   N/A    N/A N/A N/A SW12        N/A
Croton On Huds   N/A    N/A N/A N/A N2          N/A
Somers           N/A     18  12  79 NW2         N/A
Brewster         N/A     12  10  92 CALM        N/A
Newburgh       NOT AVBL
Montgomery     FAIR      10   6  84 CALM      30.00S
Otisville        N/A     10   7  85 S5          N/A  WCI   2
Warwick          N/A     10   9  92 SE2         N/A
Suffern          N/A     19  12  73 SW2         N/A
Poughkeepsie   FAIR       6   2  83 CALM      30.02R
Albany         CLOUDY    22  14  71 CALM      30.00F
$$

NJZ001-105-106-008-010-013-015-019>022-104-190800-
New Jersey

CITY           SKY/WX    TMP DP  RH WIND       PRES   REMARKS
Newark/Liberty FAIR      23  12  62 W5        30.05F WCI  17
Teterboro      FAIR      23  12  62 CALM      30.05S
Caldwell       FAIR      15  12  88 CALM      30.05S
Somerville     FAIR      12  10  92 CALM      30.04S
Linden         FAIR      23  12  63 CALM      30.06S
Perth Amboy      N/A    N/A N/A N/A W5          N/A
Sussex         FAIR       6   3  87 CALM      30.01F
Andover          N/A      5   2  87 CALM      30.02S
Trenton        FAIR      19  12  74 CALM      30.04F
Millville      FAIR      16  14  92 CALM      30.09S
Atlantic City  FAIR      20  13  74 CALM      30.09S
Wrightstown    FAIR      18  13  82 CALM      30.03F
Toms River     FAIR      14  11  87 CALM      30.07F
Belmar         FAIR      21  12  68 SW5       30.07S WCI  15
$$

PAZ047>061-062-071-190800-
Eastern Pennsylvania

CITY           SKY/WX    TMP DP  RH WIND       PRES   REMARKS
Philadelphia   FAIR      24  15  68 CALM      30.08F
Allentown      FAIR      11   5  77 NW3       30.03S
Scranton       FAIR      18  11  74 SW3       29.98S
$$

CTZ002-004>006-009-010-012-RIZ004-006-007-MAZ004-011-015-190800-
Southern New England

 In CT

CITY           SKY/WX    TMP DP  RH WIND       PRES   REMARKS
Bradley Intl   MOCLDY    21  15  78 SW5       29.99S WCI  15
Hartford       FAIR      24  15  68 W5        30.00F WCI  18
Danbury        FAIR      12   8  84 CALM      30.01S
Wtrbury/Oxford FAIR      16  12  84 NW3       29.97F
Norwalk Harbor   N/A    N/A N/A N/A W7          N/A
Bridgeport     FAIR      22  14  71 CALM      30.03S
Meriden        FAIR      16  13  88 E3        30.00F
New Haven      FAIR      24  14  65 NW7       30.01S WCI  16
Chester        FAIR      21  14  73 CALM      29.98S
Groton         FAIR      23  14  68 NW9       29.99S WCI  13
Willimantic    FAIR      16  10  77 CALM      29.98S

 In RI

CITY           SKY/WX    TMP DP  RH WIND       PRES   REMARKS
Providence     FAIR      22  15  75 W9        29.97R WCI  12
Block Island   FAIR      25  18  74 NW13G18   29.98F WCI  14
Westerly       FAIR      23  15  71 NW3       29.99S

In MA

CITY           SKY/WX    TMP DP  RH WIND       PRES   REMARKS
Boston         FAIR      23  15  71 W13       29.94R WCI  11
Worcester      FAIR      17  11  77 W14       29.89R WCI   3
Westfield      CLOUDY    18  15  88 CALM      29.97S
Provincetown   CLOUDY    30  23  75 NW14G20   29.92R WCI  19
Nantucket      FAIR      26  20  77 NW9       29.92S WCI  17
$$

ANZ330-335-338-340-345-350-353-355-190800-
Coastal Marine Observations


STATION/POSITION TIME  SKY/WX   TEMP    WIND        PRES    VSBY  WAVE
                                AIR SEA DIR/SP/G                  HT/PER
                 (UTC)          (F)     (DEG/KT/KT) (MB)    (MI)  (FT/S)
NY Harb Entrance 0550            30 40  290/ 12/ 16 1017.4          2/10
20 S Fire Island 0550            31 42  300/ 16/ 19 1017.3          3/ 4
15 E Barnegat Li 0630               43                N/A           3/ 4
Hudson Canyon    0550            35 49  320/ 19/ 23 1016.8          6/ 6
Kings Point      0642               32  330/  8/  9 1018.5
Execution Rocks  NOT AVBL
Western LI Sound NOT AVBL
Central LI Sound 0630            27     300/ 14/ 16   N/A           2
Robbins Reef     0642                   270/  5/  6 1018.3
$$


>>>>>>>>>>>>>>>>>>>>>>>>>>>> KEY <<<<<<<<<<<<<<<<<<<<<<<<<<<
>                                                          <
>     SKY/WX - Sky Condition/Present Weather               <
>     TMP    - Temperature in Fahrenheit                   <
>     DP     - Dew Point in Fahrenheit                     <
>     RH     - Relative Humidity in Percent                <
>     WIND   - Direction (from) and Speed in MPH           <
>     PRES   - Mean Sea Level Pressure (inches of Hg)      <
>     WCI    - Wind Chill Index                            <
>     VSB    - Visibility in Miles                         <
>     HX     - Heat Index                                  <
>     TC     - Temperature in Celsius                      <
>     VRB    - Varibale Wind Direction                     <
>                                                          <
>>>>>>>>>>>>>>>>>>>>>>>>>>>> KEY <<<<<<<<<<<<<<<<<<<<<<<<<<<




USA.gov is the U.S. government's official web portal to all federal, state and local government web resources and services.